CAPE
0 0 0 0 26 82 17 0 0 0 0 0 0 0 0 0 0 0 0 0 0 0 0 0 0 0 0 0 0 0 0 0
0 0 0 0 1 11 12 0 0 0 0 0 0 0 0 0 0 0 0 0 0 0 0 0 0 0 0 0 0 0 0 0
0 0 0 0 0 0 0 0 0 0 0 0 0 0 0 0 0 0 0 0 0 0 0 0 0 0 0 0 0 0 0 0
0 0 0 0 0 0 0 0 0 0 0 0 0 0 0 0 0 0 0 0 0 0 0 0 0 0 0 0 0 0 0 0
0 0 0 0 0 0 0 0 0 0 0 0 0 0 0 0 0 0 0 0 0 0 0 0 0 0 0 0 0 0 0 0
0 0 0 0 0 0 0 0 0 0 0 0 0 0 0 0 0 0 0 0 0 0 0 0 0 0 0 0 0 0 0 0
0 0 0 0 0 0 0 0 0 0 0 0 0 0 0 0 0 0 0 0 0 0 0 0 0 0 0 0 0 0 0 0
0 0 0 0 0 0 0 0 0 0 0 0 0 0 0 0 0 0 0 0 0 0 0 0 0 0 0 0 0 0 0 0
0 0 0 0 0 0 0 0 0 0 0 0 0 0 0 0 0 0 0 0 0 0 0 0 0 0 0 0 0 0 0 0
0 0 0 0 0 0 0 0 0 0 0 0 0 0 0 0 0 0 0 0 0 0 0 0 0 0 0 0 0 0 0 0
0 0 0 0 0 0 0 0 0 0 0 0 0 0 0 0 0 0 0 0 0 0 0 0 0 0 0 0 0 0 0 0
0 0 0 0 0 0 0 0 0 0 0 0 0 0 0 0 0 0 0 0 0 0 0 0 0 0 0 0 0 0 0 0
0 0 0 0 0 0 0 0 0 0 0 0 0 0 0 0 0 0 0 0 0 0 0 0 0 0 0 0 0 0 0 0
0 0 0 0 0 0 0 0 0 0 0 0 0 0 0 0 0 0 0 0 0 0 0 0 0 0 0 0 0 0 0 0
0 0 0 0 0 0 0 0 0 0 0 0 0 0 0 0 0 0 0 0 0 0 0 0 0 0 0 0 0 0 0 0
0 0 0 0 0 0 0 0 0 0 0 0 0 0 0 0 0 0 0 0 0 0 0 0 0 0 0 0 0 0 0 0
0 0 0 0 0 0 0 0 0 0 0 0 0 0 0 0 0 0 0 0 0 0 0 0 0 0 0 0 0 0 0 0
0 0 0 0 0 0 0 0 0 0 0 0 0 0 0 0 0 0 0 0 0 0 0 0 0 0 0 0 0 0 0 0
0 0 0 0 0 0 0 0 0 0 0 0 0 0 0 0 0 0 0 0 0 0 0 0 0 0 0 0 0 0 0 0
CIN
0 0 0 0 -339 -265 -254 0 0 0 0 0 0 0 0 0 0 0 0 0 0 0 0 0 0 0 0 0 0 0 0 0
0 0 0 0 -167 -286 -255 0 0 0 0 0 0 0 0 0 0 0 0 0 0 0 0 0 0 0 0 0 0 0 0 0
0 0 0 0 0 0 0 0 0 0 0 0 0 0 0 0 0 0 0 0 0 0 0 0 0 0 0 0 0 0 0 0
0 0 0 0 0 0 0 0 0 0 0 0 0 0 0 0 0 0 0 0 0 0 0 0 0 0 0 0 0 0 0 0
0 0 0 0 0 0 0 0 0 0 0 0 0 0 0 0 0 0 0 0 0 0 0 0 0 0 0 0 0 0 0 0
0 0 0 0 0 0 0 0 0 0 0 0 0 0 0 0 0 0 0 0 0 0 0 0 0 0 0 0 0 0 0 0
0 0 0 0 0 0 0 0 0 0 0 0 0 0 0 0 0 0 0 0 0 0 0 0 0 0 0 0 0 0 0 0
0 0 0 0 0 0 0 0 0 0 0 0 0 0 0 0 0 0 0 0 0 0 0 0 0 0 0 0 0 0 0 0
0 0 0 0 0 0 0 0 0 0 0 0 0 0 0 0 0 0 0 0 0 0 0 0 0 0 0 0 0 0 0 0
0 0 0 0 0 0 0 0 0 0 0 0 0 0 0 0 0 0 0 0 0 0 0 0 0 0 0 0 0 0 0 0
0 0 0 0 0 0 0 0 0 0 0 0 0 0 0 0 0 0 0 0 0 0 0 0 0 0 0 0 0 0 0 0
0 0 0 0 0 0 0 0 0 0 0 0 0 0 0 0 0 0 0 0 0 0 0 0 0 0 0 0 0 0 0 0
0 0 0 0 0 0 0 0 0 0 0 0 0 0 0 0 0 0 0 0 0 0 0 0 0 0 0 0 0 0 0 0
0 0 0 0 0 0 0 0 0 0 0 0 0 0 0 0 0 0 0 0 0 0 0 0 0 0 0 0 0 0 0 0
0 0 0 0 0 0 0 0 0 0 0 0 0 0 0 0 0 0 0 0 0 0 0 0 0 0 0 0 0 0 0 0
0 0 0 0 0 0 0 0 0 0 0 0 0 0 0 0 0 0 0 0 -18 0 0 0 0 0 0 0 0 0 0 0
0 0 0 0 0 0 0 0 0 0 0 0 0 0 0 0 0 0 0 -12 0 0 0 0 0 0 0 0 0 0 0 0
0 0 0 0 0 0 0 0 0 0 0 0 0 0 0 0 0 0 0 0 0 0 0 0 0 0 0 0 0 0 0 0
0 0 0 0 0 0 0 0 0 0 0 0 0 0 0 0 0 0 0 0 0 0 0 0 0 0 0 0 0 0 0 0
Wind_Speed
16 14 14 12 10 10 11 12 14 16 16 14 16 20 20 22 23 23 24 26 27 27 28 29 30 32 34 34 35 36 35 39
14 14 13 14 14 13 13 14 14 14 17 17 19 20 20 21 22 25 27 27 29 28 29 31 33 34 34 35 35 38 39 41
16 15 15 15 15 16 15 15 14 14 16 18 20 20 20 22 24 27 28 29 29 29 31 33 33 33 34 35 36 37 37 40
16 16 16 17 17 17 17 17 17 18 19 20 21 22 22 24 26 27 29 29 30 31 32 32 32 31 33 34 36 38 41 37
16 15 16 17 18 18 18 18 19 20 21 23 25 25 26 25 25 27 29 30 31 31 32 32 32 32 34 33 34 37 36 42
14 14 16 17 17 17 19 20 21 23 24 26 26 27 26 25 26 28 32 34 34 33 33 32 31 30 31 32 34 36 36 38
13 14 16 17 18 19 20 21 24 25 26 27 28 29 29 30 32 35 39 39 37 34 34 30 29 30 32 33 34 34 33 33
10 12 16 16 19 20 21 22 25 27 29 30 30 32 33 36 38 38 42 44 42 38 31 29 30 31 32 33 34 33 32 34
9 11 14 16 18 20 21 23 25 29 31 33 34 36 37 39 40 42 43 43 40 33 27 26 28 32 33 31 31 31 31 32
8 11 14 16 18 19 21 23 27 30 32 34 36 38 41 43 44 44 44 42 37 28 25 28 34 35 33 33 31 32 30 30
8 10 13 16 18 19 21 23 27 30 33 36 38 40 42 43 44 46 44 38 31 26 27 32 33 31 31 29 28 28 29 29
8 11 14 15 16 18 21 24 28 31 33 36 38 40 41 43 44 44 40 34 28 26 28 30 30 32 30 26 27 27 28 27
10 11 12 14 16 20 23 25 27 29 32 35 37 38 41 43 44 41 36 32 28 27 28 31 32 27 25 24 26 26 26 24
10 10 11 14 18 20 23 24 27 30 32 34 37 40 42 43 43 41 36 33 32 32 31 29 26 24 22 22 24 23 21 22
10 11 12 15 18 22 20 24 27 30 32 34 38 40 42 43 43 41 38 34 34 32 28 25 22 22 21 22 23 22 23 26
11 12 13 17 20 18 22 26 28 29 32 35 38 40 42 43 42 40 37 34 32 30 26 22 22 23 22 24 24 25 27 30
13 13 16 18 18 21 23 26 28 30 33 36 38 41 42 42 42 40 37 34 31 27 24 22 23 23 25 28 28 28 29 32
15 15 16 17 19 21 25 28 31 32 34 36 38 39 42 43 41 38 35 31 29 25 24 22 22 25 29 30 30 31 32 33
16 16 17 18 21 22 26 29 32 34 36 37 38 39 41 41 38 36 34 29 26 22 21 19 22 27 29 30 32 31 31 32
Wind_Direction
327 343 1 9 16 17 15 13 12 5 7 22 18 10 9 356 348 351 352 348 347 346 345 344 343 339 339 339 337 336 334 330
356 2 11 22 23 26 15 10 13 24 13 9 6 0 359 356 354 349 348 349 346 346 342 341 340 339 338 338 336 334 332 331
21 24 34 38 39 41 35 35 34 24 14 1 356 353 352 349 350 348 347 347 347 345 342 340 340 339 338 337 337 334 333 333
39 36 41 44 36 32 32 27 22 12 16 9 1 357 352 346 344 344 345 346 345 344 342 340 338 336 335 335 335 333 329 330
40 41 38 39 32 26 23 19 13 6 4 356 351 347 344 345 344 344 344 345 342 338 336 335 334 334 334 335 336 336 333 328
41 31 19 15 14 15 9 9 4 1 357 354 352 349 349 348 346 342 339 337 337 336 335 334 335 336 337 336 336 335 333 329
35 30 18 6 3 2 5 6 0 0 357 355 353 349 346 342 338 335 336 337 336 335 335 336 339 339 337 337 336 335 334 334
32 14 8 0 359 1 2 2 358 357 356 353 351 347 344 338 336 335 334 334 334 335 337 339 339 338 337 336 336 334 334 333
25 24 20 14 9 6 3 359 355 351 349 349 347 345 341 339 337 335 333 332 332 334 335 337 337 335 332 332 333 333 332 333
56 39 24 14 7 3 360 355 351 351 351 350 348 346 344 341 338 336 334 333 333 335 339 339 335 338 336 334 331 333 333 332
50 27 17 13 10 8 3 359 354 351 350 348 346 344 344 343 341 339 338 339 340 340 340 339 339 337 334 333 333 335 335 336
32 18 15 16 15 8 1 356 352 349 348 347 346 346 346 346 344 344 343 343 343 340 338 336 335 335 337 338 339 339 337 338
15 18 16 11 6 360 356 353 350 349 348 347 347 347 347 346 345 345 346 345 343 339 338 338 335 339 342 344 343 343 343 345
10 9 4 1 357 354 349 349 349 347 347 346 347 346 345 345 345 345 345 343 342 339 337 338 343 345 347 349 350 350 351 349
354 353 354 353 348 343 346 346 345 345 345 345 345 345 345 344 345 344 343 341 340 342 342 345 348 349 348 350 353 353 350 346
340 341 343 340 339 342 342 341 342 343 343 343 344 344 345 345 345 345 344 343 342 343 344 349 349 348 348 348 350 348 346 343
333 333 330 335 336 338 340 340 341 341 341 341 343 344 344 344 345 345 344 346 347 349 350 349 349 350 347 346 346 346 345 343
329 328 329 331 334 338 338 339 339 340 340 340 341 342 342 343 344 345 345 345 347 345 348 349 351 349 345 345 346 346 347 347
328 329 331 331 335 337 338 338 338 338 337 338 340 341 342 343 344 344 344 344 346 350 353 355 354 348 347 347 346 348 349 349